Location: Plymouth
(43.7490°N, 87.9770°W)
Time: 04:49:10
(UTC-05:00)

Daily predictions for brighter satellites

Satellite Brightness Start Highest point End
(mag) Time Altitude Azimuth Time Altitude Azimuth Time Altitude Azimuth
Meteor 2-5 Rocket 3.8 00:05:33 50° SSW 00:07:09 79° W 00:12:58 10° N
Cosmos 1733 3.6 00:03:20 10° NNW 00:06:45 60° NW 00:06:45 60° NW
Cosmos 468 Rocket 4.1 00:07:10 10° NNW 00:12:25 64° ENE 00:13:20 54° ESE
CZ-2C R/B 4.0 00:11:04 10° NE 00:15:38 26° E 00:16:07 25° ESE
Cosmos 1814 Rocket 4.2 00:13:32 10° NNW 00:18:47 64° ENE 00:19:45 54° ESE
Cosmos 2344 4.2 00:17:28 34° SE 00:18:54 36° ESE 00:26:25 10° NE
COSMOS 2487 3.6 00:21:24 42° NW 00:21:24 42° NW 00:24:30 10° N
Meteor 2-1 Rocket 4.2 00:15:46 10° N 00:21:43 87° W 00:22:53 60° S
ALOS 2 2.5 00:23:39 84° WNW 00:23:39 84° WNW 00:28:00 10° NNW
ISS -0.6 00:26:05 10° WNW 00:28:39 21° N 00:31:12 10° NE
Cosmos 1470 4.4 00:26:20 10° NNW 00:29:15 26° W 00:29:15 26° W
Cosmos 1417 Rocket 4.4 00:23:49 10° N 00:29:56 75° W 00:31:19 55° SSW
Cosmos 1408 Rocket 3.5 00:30:21 82° WNW 00:30:21 82° WNW 00:34:49 10° N
Cosmos 2369 3.9 00:25:57 10° NNW 00:31:35 63° ENE 00:33:02 47° ESE
Cosmos 1486 Rocket 4.0 00:34:01 60° ESE 00:34:14 61° ESE 00:39:23 10° NNE
Cosmos 1553 Rocket 3.9 00:28:58 10° N 00:35:21 89° W 00:36:55 55° S
NOSS 3-2 (A) 3.4 00:34:42 51° SSW 00:36:25 86° SE 00:43:09 10° NE
SL-8 R/B 4.3 00:34:01 10° WNW 00:37:39 46° W 00:37:39 46° W
Cosmos 1818 3.5 00:33:25 10° NNW 00:38:56 81° NE 00:39:56 60° SE
Cosmos 405 Rocket 3.2 00:48:48 57° N 00:48:48 57° N 00:51:56 10° N
Helios 1A Rocket 3.0 00:45:37 10° NNE 00:49:20 71° NNW 00:49:20 71° NNW
CZ-4B R/B 3.0 00:51:14 32° WNW 00:51:14 32° WNW 00:53:46 10° NNW
Lacrosse 5 rocket 4.3 00:47:23 10° NNW 00:50:17 18° NNE 00:53:16 10° ENE
Cosmos 1151 Rocket 4.0 00:49:09 10° N 00:53:07 36° ENE 00:53:18 36° E
Cosmos 1763 Rocket 3.6 00:48:25 10° NNW 00:53:45 70° ENE 00:54:39 58° ESE
Cosmos 1908 4.5 00:50:46 10° N 00:54:02 33° ENE 00:54:02 33° ENE
Cosmos 2278 3.6 00:48:44 10° NNW 00:54:24 77° WSW 00:55:09 65° S
Cosmos 1980 Rocket 3.9 00:49:48 10° N 00:54:33 27° NE 00:58:50 12° ESE
Cosmos 1743 Rocket 3.5 00:57:16 84° N 00:57:16 84° N 01:01:36 10° N
Cosmos 2151 4.5 00:57:57 26° E 00:57:57 26° E 01:01:24 10° NNE
S3M 4.2 00:55:58 10° NNW 01:02:02 55° W 01:03:20 46° SW
Cosmos 2266 Rocket 4.0 01:02:30 54° S 01:04:05 80° E 01:10:32 10° N
Cosmos 1437 Rocket 3.8 01:05:20 10° N 01:08:56 38° ENE 01:08:56 38° ENE
Lacrosse 5 2.9 01:05:28 10° NW 01:10:19 44° NNE 01:14:59 11° ESE
Timation 2 Rocket 4.2 01:10:11 46° SW 01:12:28 81° WNW 01:19:19 10° NNE
Cosmos 1441 Rocket 4.1 01:13:08 43° ENE 01:13:08 43° ENE 01:16:26 10° NNE
CZ-4C R/B 2.6 01:12:00 38° WSW 01:13:59 59° NW 01:20:01 10° NNE
Cosmos 1867 3.4 01:13:53 66° SSW 01:14:40 87° SE 01:20:12 10° NE
Cosmos 1500 Rocket 3.5 01:14:59 81° NNW 01:14:59 81° NNW 01:19:09 10° N
Cosmos 2082 Rocket 2.1 01:14:28 60° SSE 01:15:14 68° ESE 01:20:53 10° NNE
Cosmos 1697 Rocket 3.1 01:09:50 10° NNW 01:15:27 57° ENE 01:17:38 35° ESE
H-2A R/B 4.1 01:12:49 10° NNW 01:15:47 21° WNW 01:16:03 21° WNW
Cosmos 1328 Rocket 4.1 01:16:35 10° NNW 01:20:30 47° W 01:20:30 47° W
Cosmos 1354 Rocket 3.9 01:20:09 68° S 01:20:49 83° ESE 01:26:10 10° NNE
MOS 1-B Rocket 4.4 01:20:11 43° S 01:23:03 83° WSW 01:29:49 10° NNW
Cosmos 1833 Rocket 2.7 01:23:37 56° SSE 01:24:26 62° ESE 01:30:01 10° NNE
USA 32 4.4 01:21:06 10° N 01:26:17 56° E 01:27:29 45° SE
Cosmos 1503 Rocket 3.9 01:26:33 66° SSW 01:27:20 89° ESE 01:32:42 10° NNE
BREEZE-M DEB (TANK) 4.1 01:19:32 10° W 01:31:03 52° NNW 01:34:32 10° ENE
CZ-2C R/B 3.2 01:30:17 56° SSE 01:31:32 87° ENE 01:37:17 10° NNW
BREEZE-M TANK 3.4 01:19:39 10° WSW 01:32:23 60° SSE 01:35:51 10° E
Cosmos 1515 Rocket 4.1 01:28:52 10° NNW 01:32:54 45° W 01:32:54 45° W
Cosmos 841 Rocket 3.5 01:27:58 10° NNW 01:33:09 60° WSW 01:33:31 58° SW
CENTAUR R/B 2.8 01:37:39 44° SSE 01:38:59 51° ESE 01:45:31 10° NE
Cosmos 1726 3.8 01:36:01 10° NNE 01:39:08 25° ENE 01:39:41 24° E
Cosmos 1674 3.0 01:41:22 63° NNW 01:41:22 63° NNW 01:44:37 10° N
NOSS 3-2 (C) 4.3 01:39:23 24° WSW 01:42:55 48° NW 01:49:30 10° NNE
Cosmos 1656 3.7 01:41:40 10° NNW 01:47:18 64° WSW 01:48:15 55° SSW
Aureole 1 Rocket 3.4 01:43:48 10° NNW 01:48:23 85° ENE 01:49:58 48° SSE
PSLV R/B 4.4 01:52:42 49° W 01:52:42 49° W 01:56:27 10° NNW
Iridium 2 3.8 01:53:35 71° ENE 01:53:35 71° ENE 01:57:11 10° N
CZ-2C R/B 3.3 01:50:48 10° N 01:56:05 46° WNW 01:57:38 37° WSW
SL-16 R/B 3.9 01:51:18 10° N 01:56:19 31° NE 02:01:19 10° ESE
Cosmos 1328 3.7 01:59:04 81° WNW 01:59:04 81° WNW 02:03:00 10° N
SL-14 R/B 4.0 01:59:09 40° E 01:59:19 41° E 02:02:57 10° NNE
ASTEX 1 3.3 01:57:48 10° N 02:02:48 79° W 02:03:43 59° SSW
Cosmos 2242 Rocket 4.2 02:00:30 10° N 02:04:49 50° ENE 02:06:04 38° SE
Cosmos 1805 Rocket 3.4 02:05:21 71° S 02:05:50 89° E 02:10:18 10° N
ISS -1.0 02:03:02 10° NW 02:05:50 25° NNE 02:08:38 10° ENE
Cosmos 2322 Rocket 3.4 02:03:32 10° NNW 02:08:51 40° ENE 02:14:06 10° SE
Cosmos 405 3.7 02:07:36 10° NNW 02:10:29 45° WNW 02:10:29 45° WNW
Cosmos 1703 4.5 02:11:01 31° ESE 02:11:47 34° E 02:15:23 10° NNE
Cosmos 1633 Rocket 3.2 02:13:20 53° SSE 02:14:09 66° E 02:18:34 10° NNE
Cosmos 1707 Rocket 3.4 02:14:27 10° NNW 02:18:47 67° W 02:19:12 62° SW
Cosmos 332 Rocket 3.6 02:14:27 10° NNW 02:19:16 85° WSW 02:20:35 49° SSE
Cosmos 1271 Rocket 4.3 02:17:10 10° N 02:20:34 30° ENE 02:22:17 21° ESE
Cosmos 1666 Rocket 3.4 02:22:15 63° SSW 02:22:53 82° W 02:27:14 10° N
Cosmos 2058 3.2 02:27:08 50° WSW 02:27:34 52° WNW 02:31:40 10° N
SL-08 R/B 3.7 02:27:43 28° SSE 02:30:15 65° ENE 02:35:07 10° N
Lacrosse 5 rocket 2.3 02:26:09 10° NW 02:30:23 52° NE 02:34:48 10° ESE
Meteor 1-11 4.2 02:28:51 41° SSW 02:30:59 78° W 02:36:50 10° N
Cosmos 2344 4.3 02:27:26 20° WSW 02:32:58 53° NW 02:42:01 10° NE
Cosmos 1470 Rocket 4.1 02:31:57 35° SSE 02:33:29 52° E 02:37:47 10° NNE
IRAS Rocket 4.1 02:28:56 10° NNE 02:34:28 89° ESE 02:36:38 39° SSW
Cosmos 2151 4.3 02:34:33 26° W 02:35:05 27° WNW 02:38:44 10° NNW
Cosmos 1933 Rocket 4.0 02:36:33 36° SSE 02:38:04 56° E 02:42:23 10° NNE
Cosmos 1980 Rocket 2.4 02:33:23 10° NW 02:38:50 52° WSW 02:40:33 38° SSW
Cosmos 540 Rocket 3.9 02:34:31 10° NW 02:39:21 41° WSW 02:40:10 38° SW
Cosmos 2360 Rocket 4.2 02:34:33 10° N 02:39:21 28° NE 02:44:09 10° ESE
CZ-2D R/B 4.3 02:36:53 10° NE 02:40:27 18° E 02:44:01 10° SE
ERS-2 2.0 02:38:37 10° NNE 02:42:22 89° WNW 02:42:57 62° SSW
Cosmos 1386 Rocket 4.4 02:39:59 33° S 02:43:02 89° ESE 02:49:14 10° N
Cosmos 1300 3.5 02:41:26 10° NNW 02:44:50 34° W 02:44:50 34° W
deb Kosmos-1763 4.4 02:45:38 48° SSE 02:46:27 63° ESE 02:50:16 10° NNE
SL-16 R/B 3.9 02:42:01 10° SE 02:47:41 38° ENE 02:53:23 10° N
NPP 3.6 02:43:06 10° NNE 02:48:32 85° ESE 02:51:03 33° SSW
USA 215 3.2 02:43:07 10° NE 02:49:41 78° SE 02:53:19 29° SW
Cosmos 1745 Rocket 4.2 02:48:46 32° SW 02:51:41 59° WNW 02:57:57 10° N
Lacrosse 5 2.2 02:48:32 10° WNW 02:53:15 40° SW 02:54:01 38° SSW
Sich 1 3.7 02:53:31 36° WSW 02:54:36 43° WNW 02:58:51 10° N
USA 161 2.6 02:54:45 30° E 02:55:01 31° ENE 02:57:10 10° N
Nadezhda 1 Rocket 4.1 02:51:16 10° NNW 02:57:17 56° W 03:00:14 29° SSW
Meteor 1-4 Rocket 2.6 02:53:31 10° N 02:57:19 88° E 02:58:39 39° S
Cosmos 1697 Rocket 4.0 02:54:44 10° NW 02:58:57 22° W 02:59:20 22° WSW
Cosmos 2082 Rocket 4.0 02:56:17 13° W 02:59:53 22° NW 03:04:13 10° N
Meteor 2-10 4.0 02:56:09 10° NNW 03:01:23 75° W 03:04:30 26° S
Cosmos 1437 4.4 03:02:21 22° WNW 03:02:29 22° WNW 03:05:11 10° NNW
Cosmos 1709 Rocket 4.1 02:59:11 23° S 03:03:16 80° E 03:09:34 10° N
Cosmos 1833 Rocket 4.3 03:05:17 14° W 03:08:49 23° NW 03:13:17 10° N
Okean O Rocket 4.3 03:07:11 10° ENE 03:09:14 13° E 03:11:17 10° ESE
Cosmos 371 Rocket 3.7 03:06:08 10° NW 03:10:42 42° WSW 03:12:20 31° SSW
Abrixas 4.1 03:08:49 16° WNW 03:10:54 34° N 03:13:46 10° ENE
Cosmos 1862 Rocket 3.5 03:07:28 10° NNW 03:11:57 69° W 03:14:12 28° S
Cosmos 1455 2.0 03:08:33 10° NNW 03:12:22 75° W 03:13:56 33° S
Cosmos 1726 3.7 03:11:35 10° NW 03:14:20 20° W 03:14:20 20° W
ATLAS 5 CENTAUR R/B 2.6 03:13:59 22° S 03:16:42 43° ESE 03:21:37 10° NE
Cosmos 1346 4.2 03:16:14 24° SSE 03:17:36 40° E 03:20:32 10° NNE
H-2A R/B 3.3 03:14:58 25° SSW 03:17:41 37° SSE 03:37:13 10° ESE
IRS-1C 4.1 03:13:44 10° N 03:19:05 76° WNW 03:22:20 24° SSW
Cosmos 968 Rocket 4.0 03:19:20 25° WSW 03:21:56 45° WNW 03:26:53 10° N
Cosmos 304 Rocket 3.9 03:20:04 10° NNW 03:24:55 77° ENE 03:29:44 10° SSE
Cosmos 2221 Rocket 3.9 03:25:08 10° N 03:29:39 70° E 03:34:09 10° SSE
CENTAUR R/B 3.6 03:24:49 14° WSW 03:29:51 39° NW 03:36:26 10° NNE
Resurs 1-4 Rocket 2.7 03:28:40 10° NNE 03:33:54 55° E 03:39:02 10° S
AQUA 4.5 03:29:46 10° N 03:34:15 41° WNW 03:36:55 22° SW
Cosmos 1626 2.6 03:34:40 27° SW 03:36:17 45° WNW 03:39:55 10° N
UNKNOWN OBJECT B 4.1 03:33:25 10° NNE 03:36:57 35° E 03:40:31 10° SSE
Cosmos 1869 3.7 03:34:02 10° NNW 03:37:50 44° W 03:39:55 23° SSW
Cosmos 1869 Rocket 3.9 03:35:04 14° S 03:38:47 64° E 03:43:11 10° NNE
SL-16 R/B 2.6 03:35:13 10° NW 03:40:34 43° WSW 03:45:43 11° S
USA 129 3.2 03:41:11 24° NE 03:41:11 24° NE 03:42:02 10° N
ISS -3.5 03:39:19 10° WNW 03:42:35 84° SSW 03:45:51 10° SE
Spot 4 Rocket 4.1 03:37:33 10° N 03:42:39 64° WNW 03:46:24 18° SSW
Cosmos 923 Rocket 4.3 03:40:28 10° NNW 03:45:30 47° WSW 03:50:28 10° S
SME Rocket 4.2 03:45:25 10° SSE 03:51:52 63° ENE 03:56:19 10° N
USA 229 DEB 4.4 03:46:06 11° S 03:52:31 47° ESE 03:59:09 10° NE
USA 229 4.5 03:46:11 10° S 03:52:37 47° ESE 03:59:14 10° NE
Cosmos 2322 Rocket 2.9 03:47:51 10° NW 03:52:44 32° WSW 03:57:05 12° SSW
UNK 3.6 03:48:10 10° S 03:52:44 80° WSW 03:57:21 10° NNW
OAO 3 Rocket 4.1 03:51:09 19° SW 03:53:24 28° S 03:57:23 10° SE
Cosmos 1680 Rocket 3.7 03:49:49 10° NNW 03:54:51 50° WSW 03:59:51 10° S
Cosmos 1271 Rocket 4.3 03:53:50 10° NW 03:56:23 18° W 03:57:29 16° WSW
Cosmos 2181 Rocket 4.4 03:50:40 10° NNW 03:56:25 43° W 04:01:52 12° SSW
ATLAS CENTAUR R/B 2.7 03:53:21 10° NNW 03:57:58 49° NE 04:02:14 10° SE
CZ-2D R/B 4.2 03:56:53 10° NNE 04:00:58 50° E 04:04:55 10° S
Cosmos 2219 Rocket 4.3 03:57:04 10° N 04:02:00 30° NE 04:06:54 10° ESE
EO 1 Del DPAF 3.8 03:59:05 13° SSW 04:02:19 41° W 04:06:03 10° NNW
Cosmos 1933 3.8 04:03:02 10° NNW 04:06:49 40° W 04:10:29 11° SSW
Cosmos 1703 Rocket 3.9 04:02:46 10° NNW 04:06:55 44° W 04:11:02 10° SSW
GPS 2-05 Rocket1 4.3 04:06:56 16° SSW 04:08:23 20° S 04:10:58 10° SE
Lacrosse 5 rocket 2.5 04:05:47 10° WNW 04:09:30 26° SW 04:13:18 10° S
IRS-1C Rocket 4.5 04:05:40 10° NNE 04:10:56 66° ESE 04:16:11 10° S
ARIANE 5 R/B 2.9 04:06:17 10° N 04:11:13 50° WNW 04:15:49 11° SW
Cosmos 1733 Rocket 4.4 04:07:58 10° SSE 04:11:59 39° E 04:16:03 10° NNE
MTI 4.2 04:09:56 10° S 04:13:11 47° W 04:16:27 10° NNW
IRS-1D 3.9 04:08:03 10° N 04:13:17 55° WNW 04:18:26 10° SSW
Thor Agena Rocket 4.1 04:08:06 10° SSE 04:13:21 67° ENE 04:18:36 10° N
Cosmos 2154 Rocket 4.5 04:10:23 10° S 04:16:37 65° E 04:22:55 10° NNE
MOS 1-B 4.4 04:13:42 10° N 04:19:28 68° WNW 04:25:12 10° SSW
Cosmos 389 Rocket 3.1 04:17:12 10° N 04:20:52 63° ENE 04:24:32 10° SSE
CZ-2D R/B 2.3 04:15:46 10° N 04:20:56 60° WNW 04:26:08 10° SSW
Cosmos 2360 Rocket 2.4 04:18:12 10° NW 04:23:36 49° WSW 04:29:00 10° S
Cosmos 1898 Rocket 3.5 04:21:17 10° SSW 04:26:28 88° WNW 04:31:41 10° NNE
Cosmos 2227 Rocket 4.3 04:23:23 10° SSE 04:27:46 24° ESE 04:32:09 10° NE
Cosmos 2074 Rocket 4.3 04:23:18 10° SSW 04:29:20 51° WNW 04:35:26 10° N
Meteor 1-26 Rocket 4.4 04:24:08 10° NNW 04:29:31 52° W 04:34:50 10° S
In-Cosmos 22 Rocket 4.1 04:24:31 10° SSW 04:29:50 80° W 04:35:16 10° N
SL-16 R/B 3.1 04:25:29 10° SSW 04:31:15 39° W 04:37:05 10° NNW
CZ-4B R/B 3.5 04:26:08 10° NNE 04:31:35 71° ESE 04:37:06 10° S
USA 215 4.2 04:26:21 10° NE 04:32:24 42° NNW 04:38:27 10° W
Okean 1-7 3.7 04:30:20 10° NNW 04:34:22 36° W 04:38:21 10° SSW
Cosmos 2184 Rocket 4.4 04:28:14 10° SSW 04:34:23 49° WNW 04:40:32 10° N
Cosmos 1937 Rocket 3.7 04:29:15 10° SSW 04:34:33 79° ESE 04:39:52 10° NNE
Cosmos 2333 4.4 04:29:45 10° NNW 04:35:25 81° ENE 04:41:07 10° SSE
Cosmos 2322 4.2 04:33:38 10° NW 04:38:53 38° WSW 04:44:07 10° S
Cosmos 2219 3.3 04:33:45 10° SSW 04:39:28 76° WNW 04:45:16 10° NNE
Meteor 2-10 Rocket 3.6 04:36:09 10° N 04:41:13 82° E 04:46:23 10° SSE
Cosmos 2150 Rocket 4.2 04:36:16 10° SSW 04:41:31 64° WNW 04:46:53 10° NNE
Cosmos 1340 Rocket 3.8 04:41:45 10° S 04:45:39 50° E 04:49:33 10° NNE
Okean O Rocket 1.7 04:41:39 10° N 04:46:03 63° WNW 04:50:23 10° SSW
